Theta_e
311 315 317 318 318 317 315 313 314 315 316 317 317 319 319 318 318 315 316 315 310 314 318 316 316 318 318 316 310 308 311 310 307 306 304 303 302 302 302 302 302 303 303 303 304 305 305 306 307 307 307 308 308 308 308 308 308 308 308 309 309 309 309 310 310 311 313 315 317 319 321 321 321 321 322 322 322 322 322 323 323 324 325 324 324 324
312 316 318 318 317 315 314 312 312 312 312 313 315 316 316 316 316 314 315 314 310 313 319 316 316 318 317 315 309 306 309 307 304 304 302 301 301 301 301 301 301 301 302 303 304 305 305 306 306 307 307 307 308 308 308 308 308 308 308 308 308 307 308 308 308 308 309 310 312 314 316 318 318 319 320 320 321 321 321 321 321 322 322 322 322 322
314 316 317 315 313 312 314 313 312 313 313 314 315 315 317 317 317 318 316 313 312 314 321 319 316 318 316 313 308 304 305 304 303 303 302 301 301 300 301 300 301 302 302 304 304 305 306 306 307 307 307 307 307 307 307 307 307 308 308 308 307 307 307 307 307 307 307 308 309 310 312 313 315 315 316 317 318 319 319 319 320 320 320 320 320 320
317 319 316 311 311 312 314 315 315 314 314 317 317 316 320 318 317 322 319 315 314 313 318 318 315 317 315 311 307 304 303 302 302 302 301 300 300 300 300 300 301 302 303 304 304 305 306 306 307 306 306 306 306 306 306 307 307 307 307 307 307 307 307 307 307 307 307 307 307 309 310 310 311 312 313 314 314 315 315 316 317 318 318 318 318 319
320 319 313 310 313 314 314 315 316 316 317 320 319 317 319 318 317 321 319 317 316 315 315 315 318 324 322 317 310 305 304 303 301 301 300 300 299 299 300 300 301 302 302 303 304 305 306 306 306 306 306 306 306 306 305 305 306 306 306 306 306 306 307 307 307 306 306 306 306 307 308 308 308 309 310 310 309 309 309 310 311 311 312 313 314 315
318 314 312 315 316 315 315 317 319 319 320 323 322 319 318 319 319 319 317 316 319 321 316 313 322 331 330 325 314 307 307 304 302 301 300 299 299 299 300 300 300 301 302 303 304 305 305 306 305 305 305 305 305 305 305 305 305 305 305 305 306 306 306 306 306 306 306 306 306 306 306 306 306 306 306 305 305 305 305 305 305 305 306 307 307 308
316 313 313 319 319 317 316 318 320 320 320 322 321 319 317 316 317 318 317 317 322 323 315 311 318 326 328 327 317 310 309 306 303 301 299 299 299 299 299 299 300 301 302 303 304 305 305 305 305 305 305 305 305 304 304 305 304 305 305 305 305 305 305 305 305 305 306 306 306 306 306 306 306 305 304 304 303 303 303 303 303 303 304 304 304 304
317 315 314 317 319 319 318 320 320 319 322 324 319 318 320 318 319 320 318 319 321 319 318 317 316 317 321 322 316 312 311 307 305 303 300 298 298 298 299 299 300 301 303 304 304 305 305 305 305 304 304 304 304 304 304 304 304 304 304 304 304 304 304 304 304 304 305 305 305 305 305 305 305 304 303 303 303 303 303 303 303 302 303 303 303 303
313 316 318 317 318 318 319 322 321 318 321 323 317 316 320 320 321 322 319 320 317 313 320 323 315 314 320 322 316 311 311 311 308 305 302 299 298 298 299 299 300 301 303 304 304 304 304 304 304 304 304 304 304 304 304 304 304 304 304 304 304 304 304 303 303 303 303 304 304 304 304 304 304 303 302 302 302 302 302 302 302 302 302 302 302 302
312 312 314 317 319 319 320 319 316 318 319 315 312 315 318 318 320 321 320 320 316 313 321 323 316 316 322 326 320 312 312 315 311 306 302 299 298 298 298 299 300 301 303 303 304 304 304 304 304 304 304 304 304 303 303 303 303 303 303 303 303 303 303 303 302 302 302 302 302 303 303 302 302 301 301 301 301 301 300 300 300 300 300 301 301 301
311 309 309 314 316 315 316 312 308 312 312 308 312 318 321 320 319 319 320 318 315 319 322 319 316 315 319 325 322 314 311 310 308 306 302 299 298 297 298 298 299 301 302 303 303 303 304 303 303 303 303 303 303 303 303 303 303 303 303 302 303 302 302 302 301 301 301 301 301 301 300 300 300 299 299 299 299 299 299 299 299 299 299 299 299 300
313 312 311 311 311 310 315 314 308 308 307 310 318 321 321 323 320 320 322 318 319 324 321 314 312 313 318 322 317 311 305 302 304 305 302 299 298 297 298 299 299 301 302 303 303 303 303 303 303 303 303 303 303 303 303 302 302 302 302 302 302 302 301 301 300 300 300 300 300 299 299 299 298 298 298 298 298 297 297 297 297 297 297 298 298 298
317 317 312 310 310 311 318 320 313 312 313 316 321 321 322 323 320 321 322 319 320 321 315 312 313 313 318 319 313 308 303 299 300 302 301 299 298 298 298 299 299 301 302 302 303 303 303 303 303 303 303 302 302 302 302 302 302 302 301 301 301 301 301 300 300 299 299 299 299 298 298 297 297 297 297 296 296 296 295 295 295 295 295 295 296 296
319 320 313 312 313 311 316 319 317 318 317 316 319 322 323 321 320 323 320 316 318 317 311 310 313 315 319 315 308 304 301 297 297 300 301 299 298 299 299 299 300 300 302 303 303 303 303 303 303 302 302 302 302 302 301 301 301 301 301 300 300 300 299 299 298 298 298 298 297 297 297 296 296 296 295 295 295 294 294 294 293 293 293 293 293 293
321 322 318 316 315 313 314 315 320 323 316 314 317 319 320 323 324 323 321 319 319 318 312 309 313 320 321 312 303 301 298 297 298 299 300 299 299 299 298 299 300 301 302 303 303 303 303 302 302 302 302 301 301 301 301 301 300 300 300 299 299 299 298 298 297 297 296 296 296 295 295 295 295 294 294 294 293 293 293 292 292 291 291 291 291 290
317 322 321 314 310 312 313 311 314 320 317 312 313 315 317 321 321 318 317 317 316 318 316 313 316 320 315 306 300 299 298 297 298 298 298 299 298 298 298 299 300 301 303 303 303 303 302 302 302 301 301 301 301 300 300 300 299 299 299 298 298 297 297 296 296 295 295 294 294 294 294 293 293 292 292 292 292 291 291 290 290 290 290 290 289 289
316 321 319 312 309 310 311 310 309 313 317 313 311 317 317 314 317 318 316 312 312 316 317 315 318 315 310 307 302 300 300 298 298 297 297 298 298 298 299 300 301 302 303 302 302 302 302 301 301 301 301 300 300 299 299 298 298 297 297 296 296 295 295 294 294 294 293 293 292 292 292 292 291 291 291 291 291 290 290 290 289 289 289 289 289 289
320 321 317 313 314 310 306 308 308 307 313 316 316 318 314 311 317 319 318 317 315 317 317 315 317 316 315 313 305 301 302 301 299 298 297 297 297 298 299 300 302 302 302 302 302 301 301 301 300 300 300 299 299 298 298 297 297 296 295 294 294 293 293 292 292 291 291 291 291 291 290 290 290 290 290 290 290 290 289 289 289 289 289 289 289 289
318 320 316 311 314 313 308 311 313 309 309 313 315 313 312 316 320 317 317 320 318 318 319 319 316 315 315 314 310 308 305 302 301 300 298 297 297 298 300 301 301 302 302 302 302 301 301 300 300 300 299 299 298 298 297 297 296 295 294 293 292 291 291 290 290 290 289 289 289 289 289 289 289 289 289 289 289 289 289 289 289 289 289 289 289 289
317 319 318 312 311 312 312 314 319 316 309 309 310 310 312 317 319 317 316 318 319 318 319 320 317 317 317 315 317 316 306 301 302 301 299 298 298 300 301 301 302 302 302 302 302 301 301 300 300 299 298 298 298 297 296 295 294 292 291 291 290 290 289 289 289 289 289 289 289 289 289 289 289 289 288 289 289 289 289 289 289 289 289 289 289 289
315 315 318 314 310 312 315 316 318 318 314 313 314 314 314 313 314 316 315 315 319 319 321 320 316 319 320 313 316 315 305 301 302 301 299 298 300 302 302 303 303 303 303 302 302 301 301 300 299 298 298 298 297 296 294 292 291 291 290 290 289 289 289 289 289 289 289 289 289 289 289 289 289 289 289 289 289 289 289 289 289 289 289 289 289 289
315 315 319 318 314 316 319 314 311 314 316 316 316 316 316 314 315 317 315 314 315 316 321 320 315 318 317 308 309 308 302 300 300 299 299 299 301 303 303 303 303 303 303 302 302 301 301 300 299 298 298 297 296 294 292 291 290 290 290 289 289 289 289 289 289 289 289 289 289 289 290 290 290 290 289 289 289 289 289 289 289 289 289 289 289 289
313 317 321 319 316 316 316 309 304 308 312 313 314 315 316 316 316 318 316 315 315 313 315 316 315 316 310 303 304 303 300 300 300 299 300 301 302 303 303 303 303 303 303 302 301 301 300 299 298 297 298 297 294 292 291 290 290 290 289 289 289 289 289 289 289 290 290 290 290 290 290 290 290 290 290 290 290 289 289 289 289 289 289 289 289 288
313 318 319 318 317 314 312 310 306 306 309 312 313 312 314 316 316 316 314 315 317 316 315 315 315 315 308 301 300 300 299 300 300 300 301 301 302 303 303 303 303 303 303 302 301 300 300 299 298 297 298 296 293 291 290 290 289 289 289 289 289 290 290 290 290 290 290 290 290 290 289 289 289 289 289 289 289 289 289 289 289 289 289 288 288 288
314 318 318 317 318 316 313 314 312 310 311 313 314 312 312 314 314 312 311 312 315 316 315 314 314 314 310 303 300 301 300 299 299 300 301 302 302 303 303 303 303 302 302 301 301 300 299 299 298 297 296 294 292 290 290 289 289 289 289 289 290 290 290 290 290 290 290 290 289 289 289 289 289 289 289 289 289 289 289 289 289 289 289 288 288 287
315 318 317 316 317 316 316 315 314 314 313 312 312 311 310 312 312 312 313 312 313 315 315 314 313 312 310 306 305 304 302 301 301 300 300 302 303 303 303 302 302 301 301 301 301 299 299 298 297 296 294 292 290 290 289 289 289 289 289 289 290 290 290 290 290 290 290 290 289 289 289 289 289 289 289 289 289 289 289 289 289 289 289 288 287 287
315 317 315 316 316 315 316 316 313 313 314 313 312 311 311 310 309 311 313 313 313 313 313 313 312 312 311 308 307 306 305 305 303 300 301 302 303 303 302 301 300 300 301 301 300 299 298 297 296 294 292 290 290 290 290 290 290 291 290 290 291 291 290 290 290 290 290 290 290 290 289 289 289 289 289 289 289 289 289 289 289 289 289 288 287 287
316 315 313 315 315 313 315 315 311 310 314 314 313 313 311 308 308 309 310 311 312 312 311 311 310 311 311 310 308 307 307 306 301 299 302 303 303 303 301 300 300 300 300 300 299 298 297 296 295 292 291 290 291 291 292 291 291 291 291 291 291 291 291 291 291 291 290 290 290 290 290 290 290 290 289 289 289 289 289 289 289 289 288 287 287 286
315 315 312 313 313 310 310 311 309 309 311 311 312 313 310 307 307 308 307 309 311 310 309 309 309 309 309 308 308 307 305 304 302 301 302 302 301 301 299 299 300 300 300 299 298 298 297 296 294 291 291 292 292 292 292 292 292 292 292 292 292 292 292 291 291 291 290 290 290 290 289 289 289 289 289 289 289 289 289 289 289 288 288 287 286 286
312 315 312 310 311 309 307 306 306 306 308 308 309 310 309 306 305 305 306 306 306 306 307 307 306 306 306 305 304 303 302 302 302 302 301 299 299 299 299 299 299 299 299 299 298 297 297 295 292 291 292 293 293 293 293 292 292 292 292 292 291 291 291 291 291 290 290 289 289 289 289 288 288 288 288 288 288 288 288 288 288 287 287 286 285 285
309 312 309 308 310 307 303 303 303 304 305 307 307 307 305 303 303 303 303 303 303 304 304 304 303 303 302 301 300 300 300 300 300 300 299 298 298 298 299 299 299 298 298 298 297 296 295 293 292 292 293 293 293 292 291 291 291 291 291 291 291 291 291 290 290 289 289 288 288 288 288 288 288 288 288 287 287 287 287 287 287 286 285 285 284 284
307 308 306 307 311 308 301 301 302 301 301 302 303 303 301 301 303 302 301 302 303 303 303 302 302 302 301 299 298 299 298 297 297 297 298 298 298 298 298 298 298 298 297 296 295 294 294 293 293 293 293 292 291 291 290 290 290 290 291 291 291 291 290 289 289 288 288 288 288 288 288 288 288 287 287 287 287 286 286 286 285 285 284 284 283 283
307 308 306 307 311 307 299 299 301 301 302 303 302 302 301 300 301 300 300 301 301 301 302 301 301 301 299 298 298 299 297 295 295 296 297 298 298 298 297 297 297 297 296 295 294 293 293 293 293 292 292 291 291 290 290 290 290 290 290 290 290 289 289 289 289 288 288 288 288 287 287 287 287 287 287 286 285 285 285 284 284 284 283 283 283 283
304 306 306 306 308 304 297 298 301 303 305 304 301 302 302 300 300 300 299 299 299 300 301 300 300 300 298 298 299 299 297 295 295 296 297 297 297 297 297 297 296 296 295 294 293 293 293 292 292 291 291 291 291 290 290 290 289 289 289 289 289 289 289 289 288 288 288 288 287 287 287 287 287 286 286 285 284 284 284 283 283 283 283 283 283 283
303 304 304 303 303 300 296 298 303 305 304 300 297 299 300 298 299 298 297 297 297 298 299 298 299 299 297 297 297 297 296 296 296 296 296 296 297 297 296 296 295 294 293 293 292 292 292 291 291 291 291 291 291 290 290 289 289 289 289 289 289 289 288 288 288 288 287 287 287 287 287 286 286 285 284 284 283 283 283 283 283 282 282 283 283 283
303 303 302 301 300 298 298 301 305 304 300 298 297 297 295 295 296 296 296 297 296 296 297 297 298 297 295 295 295 295 295 295 295 295 295 295 296 295 295 295 294 293 293 292 292 292 291 291 291 290 291 291 290 290 289 289 289 289 289 289 289 288 288 288 287 287 287 287 287 286 286 285 285 284 283 283 283 283 283 282 282 282 282 282 283 283
302 302 303 303 301 301 300 301 302 302 301 301 300 297 294 295 297 297 297 297 296 295 294 296 298 296 294 294 295 294 294 293 293 293 293 294 295 294 294 293 293 293 292 292 292 291 291 291 291 291 290 290 290 289 289 289 289 289 289 289 288 288 288 287 287 287 287 286 286 286 285 284 284 283 283 283 283 282 282 282 282 282 282 282 282 282
300 301 304 305 303 301 301 301 301 302 302 302 299 296 294 294 295 296 296 298 298 294 292 295 298 296 293 292 292 292 292 293 293 293 293 294 294 294 293 293 293 292 292 292 292 291 291 291 291 290 290 290 289 289 289 289 289 289 288 288 288 287 287 287 287 287 286 286 286 285 284 283 283 282 282 282 282 282 282 282 282 282 282 282 282 282
298 299 302 303 302 300 300 302 302 301 302 302 299 294 292 292 294 295 296 299 298 292 291 294 295 293 292 291 291 290 292 294 295 294 294 294 293 293 293 293 292 292 292 292 292 292 291 291 290 290 290 289 289 289 289 289 288 288 288 287 287 287 287 287 286 286 286 285 285 284 283 283 282 282 282 282 281 281 281 281 281 281 281 281 281 281
298 299 299 300 301 301 300 300 300 299 300 299 297 293 290 292 295 295 297 300 297 290 291 294 292 292 294 292 290 291 293 295 295 294 293 293 292 292 292 292 292 292 291 291 291 291 291 290 290 290 289 289 289 289 288 288 288 288 287 287 287 287 287 286 286 286 285 285 285 284 282 282 281 281 281 281 281 281 281 281 281 281 281 281 280 280
296 297 298 299 299 300 299 299 298 298 298 296 293 292 291 292 295 296 297 299 295 291 293 295 294 295 295 292 290 292 294 294 294 293 293 292 292 292 292 292 292 291 291 291 291 291 290 290 290 290 289 289 289 289 288 288 288 288 287 287 287 287 286 286 286 285 285 285 284 282 281 281 281 280 280 280 280 281 281 280 280 280 280 280 280 279
295 295 296 298 298 297 298 298 296 297 297 294 292 292 292 294 297 297 297 296 294 293 294 295 295 295 295 293 292 293 293 293 293 293 292 292 292 292 292 292 292 291 291 291 290 290 290 290 290 290 289 289 289 289 288 288 288 287 287 287 287 286 286 286 285 285 285 284 283 281 281 280 280 280 280 280 280 280 280 280 280 280 280 279 279 278
295 295 294 296 297 296 296 296 295 296 296 293 292 293 293 296 298 297 294 294 293 294 294 294 294 294 294 294 293 293 293 293 293 293 292 292 292 292 292 292 292 291 291 291 291 290 290 290 290 289 289 289 289 288 288 288 287 287 287 287 286 286 286 286 285 285 284 283 282 281 280 280 279 279 279 279 280 280 280 279 279 279 279 278 278 278
296 296 295 295 296 295 295 296 296 295 293 292 294 295 295 296 296 295 294 294 293 293 293 293 293 293 293 293 293 293 293 293 292 293 292 292 292 292 292 292 291 291 291 291 291 290 290 290 290 289 289 289 288 288 288 287 287 287 286 286 286 286 286 285 285 285 283 282 281 280 280 279 279 279 279 279 279 279 279 279 279 279 278 278 277 277
296 295 295 297 297 295 294 296 295 293 292 293 295 295 295 295 295 295 295 295 294 294 293 293 293 293 293 293 293 292 293 292 292 293 292 292 292 292 292 292 292 292 291 291 291 290 290 290 289 289 289 289 288 288 288 287 287 286 286 286 286 285 285 285 285 284 283 281 281 280 280 279 279 279 279 279 279 279 279 279 279 279 278 277 276 276
293 290 291 295 296 293 292 292 291 291 292 293 295 295 294 295 295 295 295 295 294 294 294 293 293 292 292 292 292 292 292 292 292 292 292 292 292 292 292 292 291 291 291 291 291 290 290 289 289 289 289 288 288 288 287 287 286 286 285 285 285 285 285 285 284 283 282 281 280 280 279 279 279 278 278 278 278 278 278 278 278 278 278 277 276 276
291 289 291 294 295 294 294 292 291 291 292 293 294 294 294 294 294 294 294 295 294 294 294 293 293 292 292 292 292 292 292 292 292 292 292 292 292 291 291 291 291 291 291 291 290 290 290 289 289 289 288 288 288 287 287 286 286 285 285 285 285 285 285 284 284 282 281 280 280 279 279 279 279 278 278 278 278 278 278 278 278 278 277 276 276 275
293 291 292 293 293 294 295 293 290 290 291 292 293 294 294 294 294 294 294 294 294 294 293 293 292 292 292 292 292 291 291 292 292 292 292 291 291 291 291 291 291 291 291 291 290 290 289 289 289 288 288 288 287 287 286 286 285 285 285 284 284 284 284 284 283 282 280 280 279 279 278 278 278 278 278 278 278 278 278 278 278 277 277 276 275 275
292 292 293 293 292 292 293 291 289 290 291 291 292 293 293 293 293 293 293 293 293 293 293 292 292 292 292 292 292 291 291 291 291 291 291 291 291 291 291 291 290 290 290 290 290 289 289 288 288 288 287 287 287 286 286 285 284 284 284 284 284 284 283 283 282 281 280 279 279 278 278 278 278 278 278 278 278 278 278 277 277 277 277 276 275 275
292 293 293 293 293 293 293 292 292 292 292 292 292 293 293 293 293 293 293 293 293 293 293 292 292 292 292 292 292 291 291 291 291 291 291 291 291 291 291 291 290 290 291 290 290 289 288 288 288 287 287 287 286 285 285 284 283 283 283 283 283 283 282 281 281 280 279 279 278 278 278 277 277 277 277 277 277 277 278 277 277 276 276 276 275 275
292 293 293 292 293 293 293 292 292 292 292 293 293 293 293 292 293 293 292 292 292 292 292 292 292 292 292 292 292 291 291 291 291 291 291 291 291 291 291 290 290 290 290 290 289 289 288 288 288 287 287 286 286 285 283 283 282 282 283 282 282 282 281 280 280 279 279 278 278 278 277 277 277 277 277 276 277 277 277 278 277 277 276 275 275 275
Wind_Speed
5 3 2 5 7 8 10 11 10 4 4 4 3 3 4 5 6 5 5 5 1 0 5 4 4 7 10 9 9 14 11 11 12 9 13 15 15 16 17 18 18 19 18 16 16 16 15 15 15 15 14 14 13 14 15 14 14 14 13 11 11 10 8 6 5 4 3 1 1 1 1 0 1 1 1 1 1 2 3 4 5 6 6 5 6 7
4 4 7 10 10 8 7 8 7 2 2 2 2 3 4 5 6 6 5 5 1 2 4 2 3 8 9 5 8 12 9 11 11 11 14 15 17 17 18 19 19 19 19 20 22 22 23 23 23 23 23 22 23 24 24 24 23 21 20 19 18 17 14 13 12 10 8 7 5 3 2 1 0 1 2 2 2 2 2 3 4 5 5 6 7 8
2 4 11 13 6 3 2 4 5 4 3 2 2 2 4 3 4 7 5 4 2 2 3 2 2 9 8 3 7 10 10 10 12 13 13 14 17 17 18 18 19 20 22 24 26 27 28 28 28 28 28 28 28 28 27 27 26 25 25 24 23 21 20 19 17 15 15 13 10 8 7 5 2 2 2 2 3 5 5 6 6 7 7 7 8 9
3 6 12 10 5 4 2 3 6 3 2 3 3 2 4 3 1 4 4 4 2 1 2 2 2 7 4 4 6 9 12 14 16 16 15 16 17 16 16 17 19 21 24 26 27 29 29 29 29 30 30 29 28 29 29 28 28 27 27 26 25 25 24 23 22 20 18 15 13 11 9 8 6 5 3 2 3 4 6 7 8 9 10 11 11 11
7 8 4 3 6 6 5 3 7 4 2 3 5 5 5 5 5 6 4 4 2 2 2 1 3 5 3 1 2 6 10 13 14 16 16 16 16 16 16 18 20 22 24 26 28 29 29 29 29 29 29 28 29 30 30 29 29 28 27 27 26 26 26 25 24 22 19 17 15 13 11 11 9 7 5 4 5 5 4 4 6 7 9 12 13 14
9 8 2 5 3 5 5 4 5 7 3 4 5 9 10 8 7 6 3 5 3 3 3 4 4 4 5 4 2 4 5 7 10 13 14 13 14 15 17 18 19 21 24 26 28 28 28 28 28 28 28 28 29 30 29 28 28 27 27 26 26 26 26 26 25 23 21 19 18 16 15 16 15 13 13 13 13 12 11 9 7 7 7 9 10 12
5 5 2 4 4 5 4 5 5 7 5 2 4 8 9 6 5 4 2 1 0 2 3 3 1 5 6 6 3 4 5 5 6 9 10 11 13 14 15 16 18 22 24 26 27 27 26 27 26 27 28 28 29 28 26 26 25 25 25 25 25 25 25 25 24 23 21 21 20 20 19 19 19 19 18 18 16 15 14 13 10 9 8 8 8 9
3 1 1 4 4 4 4 4 6 7 6 3 4 5 6 6 6 6 5 3 2 2 4 3 1 3 4 6 4 5 7 5 4 5 6 8 11 12 14 15 18 21 24 25 26 25 25 25 25 26 26 26 25 24 23 23 23 23 22 22 22 22 23 22 21 20 20 20 20 20 19 19 19 19 19 17 16 15 14 13 13 13 12 11 10 10
2 1 2 6 4 4 6 4 7 9 4 6 3 6 6 6 6 5 6 2 1 1 4 4 1 1 5 5 3 4 4 1 1 2 1 6 9 11 13 15 18 21 23 24 24 24 24 23 23 23 22 22 21 20 20 20 20 20 19 19 19 19 20 19 18 18 18 18 17 17 17 17 17 18 17 15 14 14 14 14 14 14 14 14 14 13
1 1 4 6 5 5 4 2 4 8 3 4 6 7 5 5 5 4 5 3 2 1 4 6 4 2 5 5 3 2 2 3 3 4 3 6 8 10 13 15 18 20 22 22 22 22 21 21 21 20 19 18 18 18 17 17 16 16 16 15 16 17 17 16 15 15 15 15 14 14 14 14 14 14 13 11 11 12 12 12 13 14 14 15 15 15
2 1 2 3 3 5 4 3 1 3 3 6 7 5 5 5 4 3 2 4 2 3 6 6 6 5 3 5 3 3 1 2 3 3 4 6 8 11 13 15 17 19 20 20 20 20 19 18 17 15 15 15 15 14 13 13 13 13 14 14 14 15 14 13 13 13 13 12 12 13 12 12 12 11 10 9 10 11 11 12 13 14 14 14 14 14
4 2 2 2 2 4 6 5 4 4 4 6 4 3 3 4 3 4 4 3 1 5 5 4 4 5 4 4 3 2 2 2 3 4 7 9 11 13 14 16 17 18 19 18 17 17 16 15 14 12 12 12 12 11 11 12 12 11 12 12 12 12 12 12 12 12 12 11 11 12 11 11 12 11 11 12 12 13 13 14 13 12 12 12 12 12
3 4 3 2 2 4 5 4 3 5 5 5 4 5 3 3 3 3 3 0 3 6 3 2 2 4 5 5 2 3 4 4 6 7 13 16 17 18 17 17 18 18 17 16 15 14 13 12 10 10 9 9 9 9 10 10 10 10 10 10 10 10 10 10 10 10 10 10 11 12 12 12 13 13 13 14 14 15 15 15 15 15 14 14 14 14
2 5 1 1 3 6 7 4 2 1 1 4 5 4 3 2 0 3 3 2 4 4 2 2 1 1 5 3 2 3 4 4 6 8 20 23 22 21 20 18 18 17 16 14 13 11 10 8 8 7 7 7 6 7 7 7 8 8 8 8 9 9 9 8 9 9 9 9 11 11 12 12 13 13 14 15 16 16 16 17 18 18 18 18 18 17
2 4 3 5 2 6 8 5 5 5 3 3 4 5 4 4 4 4 3 3 4 3 2 2 0 3 3 1 2 2 2 3 3 11 22 23 21 21 19 18 18 17 16 13 11 9 7 6 5 5 4 4 4 5 5 5 5 5 6 6 7 7 7 7 7 7 8 9 10 11 11 11 12 13 14 14 15 16 16 17 18 18 18 19 19 18
4 4 6 3 1 5 6 4 5 6 2 2 2 4 2 4 5 2 3 4 2 2 3 2 2 3 3 1 1 2 4 5 7 14 19 20 20 20 19 19 19 17 15 12 9 7 5 4 4 3 2 2 2 2 2 3 3 4 4 4 4 4 4 4 5 5 6 7 8 9 9 10 11 12 12 13 14 15 16 17 17 18 18 18 18 18
3 4 5 1 1 3 4 4 4 3 2 2 2 3 4 4 6 3 2 1 3 1 3 1 2 4 1 0 0 3 4 3 5 10 15 19 19 19 20 20 19 16 14 10 8 6 5 4 3 2 1 0 0 1 1 2 2 2 3 3 3 3 3 3 3 4 5 5 6 6 7 8 9 10 11 12 13 14 15 15 16 16 16 16 17 17
4 3 4 2 2 1 2 4 4 3 3 4 2 5 3 2 4 3 1 3 3 3 4 1 4 4 2 2 1 2 2 3 4 7 11 15 17 19 21 21 18 15 12 9 8 6 5 5 4 4 3 2 1 1 1 1 2 2 3 3 3 3 3 3 4 4 4 4 4 5 5 6 7 8 9 10 10 11 12 13 14 15 15 16 18 18
3 2 5 1 3 1 3 4 3 4 2 4 3 3 3 2 1 2 2 2 1 3 4 3 3 4 4 4 3 5 7 7 6 7 8 11 16 20 21 21 18 15 12 9 8 7 6 6 6 6 4 3 3 2 1 1 0 1 2 2 2 2 3 4 4 5 4 4 5 5 7 7 8 9 10 10 11 11 12 12 13 14 15 16 17 18
3 2 4 1 1 0 3 2 3 2 1 2 1 1 1 2 3 2 2 3 2 2 3 5 4 3 5 6 7 10 11 11 10 8 8 14 20 23 23 21 17 13 11 9 8 8 8 8 8 7 5 5 4 3 3 2 3 4 4 4 4 4 4 5 5 5 5 5 7 8 9 9 9 10 11 11 12 13 14 15 16 16 17 18 19 19
2 2 3 3 2 1 1 2 6 6 3 2 2 2 1 0 2 1 1 3 3 3 2 4 5 5 4 3 7 9 10 12 13 11 11 18 25 26 24 20 15 11 9 9 9 9 9 9 9 8 7 6 5 5 4 4 5 5 4 3 3 3 3 3 4 5 6 7 8 9 10 11 11 12 13 14 15 16 17 19 20 21 22 23 23 24
2 3 3 2 1 3 4 3 4 6 5 5 5 5 4 3 3 1 3 1 2 3 4 4 6 7 4 1 3 6 8 12 15 15 15 22 28 27 23 18 13 10 9 10 10 10 10 9 9 9 8 7 6 5 5 5 4 3 3 2 2 1 2 3 4 6 7 8 9 10 11 12 13 14 15 16 17 19 20 22 23 24 25 25 26 27
3 3 3 2 3 4 5 2 2 3 3 4 2 3 3 3 4 4 6 4 1 1 2 2 3 5 3 1 1 6 10 14 19 19 19 24 28 27 24 17 10 10 11 12 12 12 10 9 10 10 9 8 7 6 6 5 4 4 3 2 1 1 3 5 7 8 9 10 11 12 13 14 15 15 16 17 18 20 22 24 25 26 27 27 27 28
3 2 2 1 2 2 4 3 1 2 3 2 2 2 4 3 4 4 5 3 2 3 1 2 4 4 2 3 1 6 10 12 17 20 21 24 26 24 22 15 10 10 12 14 15 13 12 12 12 12 10 9 9 8 7 6 5 4 3 1 2 4 6 7 9 10 11 12 13 14 15 16 17 18 19 21 22 24 26 27 28 29 31 31 31 30
4 2 3 2 2 2 3 2 2 2 0 3 2 2 3 3 5 3 2 3 2 5 6 3 7 5 2 4 2 4 7 7 13 18 17 18 21 22 19 13 10 11 13 16 17 16 15 14 14 13 11 11 11 10 8 7 5 3 1 2 4 5 6 8 9 10 12 13 14 16 17 19 20 21 23 25 27 28 30 31 33 34 35 36 36 35
4 2 3 5 6 6 4 3 3 2 1 2 2 3 4 5 6 4 2 3 4 4 6 5 7 4 3 3 2 1 3 5 11 15 14 13 17 20 17 11 12 14 16 17 19 18 17 15 14 14 13 12 11 10 8 6 4 2 0 2 3 5 7 8 10 12 13 15 16 18 20 21 23 24 26 28 29 31 32 33 35 36 37 38 37 36
2 1 4 8 10 9 7 5 4 4 4 4 4 6 6 6 7 5 4 5 5 2 4 7 5 1 3 3 5 6 5 6 9 12 14 14 16 17 15 13 16 17 18 18 18 18 17 16 16 15 14 13 11 9 7 6 4 3 3 4 6 8 9 10 12 13 15 17 19 21 23 24 26 28 29 31 32 33 34 35 36 37 38 38 37 36
3 3 6 9 10 7 4 5 5 5 6 8 7 8 7 5 7 7 6 6 5 3 8 8 5 4 8 8 8 8 7 7 9 12 16 17 17 17 16 16 17 17 18 18 18 19 18 17 16 16 15 14 11 9 8 6 6 6 6 7 9 11 12 14 15 16 17 19 21 23 25 26 28 30 31 33 34 35 36 36 37 38 39 39 38 36
3 5 6 5 6 3 2 3 4 4 3 4 6 8 8 7 9 10 9 8 8 7 10 6 7 8 12 8 7 10 11 11 12 15 17 17 17 17 16 16 16 16 18 18 19 19 18 18 18 18 16 14 12 10 9 8 9 9 10 12 13 14 16 17 18 18 19 21 23 25 26 27 29 30 31 33 34 35 36 37 38 39 40 39 37 37
3 3 3 4 4 2 1 1 2 4 2 2 6 8 7 8 10 10 8 8 7 7 8 6 6 9 11 7 6 10 14 14 15 18 18 16 16 16 15 15 15 15 17 18 19 19 19 18 19 18 17 15 13 12 11 11 12 13 14 15 16 17 18 18 18 18 20 22 24 25 26 27 28 30 31 33 34 36 37 38 39 39 39 38 38 39
3 2 2 3 2 1 1 0 2 3 3 3 8 10 5 5 6 8 8 5 3 6 9 8 8 11 12 8 7 10 12 13 17 21 21 18 16 15 15 15 15 15 17 18 18 19 19 19 20 19 17 16 14 12 11 11 13 14 16 18 18 18 17 17 18 20 22 23 24 24 26 27 29 30 32 33 35 36 37 37 37 37 37 38 40 42
3 2 2 3 3 3 1 2 4 3 2 4 12 13 7 6 7 7 5 6 7 10 10 8 7 10 10 3 5 10 12 14 16 19 20 19 16 15 16 16 16 17 17 18 19 20 20 21 20 19 17 15 13 11 10 11 13 15 17 18 19 18 18 19 20 23 24 23 24 25 27 28 30 32 33 34 35 35 35 35 35 36 38 40 41 42
4 4 2 3 5 2 1 3 4 4 1 6 11 9 10 11 10 5 3 8 11 9 7 7 9 10 5 1 2 8 11 12 15 17 18 19 16 15 16 16 16 17 17 18 19 20 20 20 20 18 17 15 13 11 10 12 13 15 17 18 19 19 19 21 23 24 24 23 24 26 27 29 31 32 33 33 33 33 33 35 37 38 40 40 41 42
4 5 4 3 3 2 0 1 3 2 5 6 3 4 9 11 11 9 9 11 10 8 7 8 7 6 3 3 7 11 10 11 15 18 18 17 16 16 17 16 15 16 17 18 19 20 20 19 19 18 17 15 13 12 12 13 14 16 18 19 20 20 21 23 24 24 24 24 25 27 28 30 31 31 32 31 32 33 34 36 38 39 39 40 41 42
3 3 2 1 2 2 1 2 3 6 6 3 1 1 4 6 8 9 10 9 8 10 10 9 8 7 8 13 16 15 13 14 15 17 16 14 15 16 17 17 17 17 18 18 20 20 20 20 20 19 18 16 15 15 15 16 17 18 20 21 21 22 22 23 23 24 24 25 27 28 29 30 30 30 31 31 32 34 36 37 38 38 39 40 41 42
5 4 2 2 3 2 1 4 6 4 2 3 4 2 3 3 4 2 5 8 10 11 10 10 10 11 14 19 18 13 12 11 11 12 11 11 14 15 16 18 18 18 20 20 21 21 21 21 21 20 19 17 17 17 17 18 19 20 21 22 22 22 23 23 24 25 25 27 28 29 29 30 30 30 31 32 34 35 36 37 37 38 39 40 40 41
5 4 1 2 3 2 2 5 4 4 6 10 7 3 4 4 5 5 4 8 8 9 10 9 10 12 14 16 13 9 7 4 5 8 11 12 13 16 17 18 17 19 21 21 21 21 20 20 20 20 19 18 17 18 19 19 21 22 22 23 23 23 24 24 25 26 27 28 29 29 29 30 30 31 32 33 35 35 36 36 37 37 38 39 40 41
2 3 3 4 3 2 3 3 3 2 7 10 5 3 4 5 7 7 3 5 5 8 15 13 10 11 10 9 9 7 6 2 3 8 13 13 14 16 17 18 18 18 18 18 19 19 20 20 21 20 19 19 18 19 19 20 22 23 23 23 23 23 24 25 26 27 27 28 29 29 29 30 30 31 33 34 34 35 35 35 36 36 37 38 40 41
3 1 1 2 1 2 3 4 4 5 8 7 5 3 2 7 9 7 3 5 5 10 19 16 10 10 10 11 13 11 7 3 5 10 12 12 12 15 17 18 18 16 16 16 16 18 20 21 21 20 20 19 19 20 20 22 23 23 24 24 23 24 25 26 27 28 28 29 29 29 29 30 31 32 33 33 33 33 34 34 35 36 36 38 39 41
3 2 1 2 4 4 4 4 4 5 6 5 5 3 3 8 10 9 2 7 6 10 18 18 14 14 15 16 16 11 6 7 8 11 12 10 12 16 18 19 18 16 15 16 17 19 21 21 21 21 20 20 20 21 22 23 23 24 24 24 24 26 27 27 28 29 29 29 29 29 30 31 32 32 32 32 32 32 33 33 34 35 36 38 39 40
1 0 1 4 6 7 7 5 3 4 6 5 6 10 11 8 6 4 4 6 7 12 16 17 17 17 18 19 18 13 14 17 15 15 13 12 15 17 19 21 20 17 16 18 19 21 22 23 23 21 21 21 21 22 23 24 25 25 25 26 26 28 28 28 29 29 29 30 29 29 30 31 31 31 30 30 31 32 32 32 33 35 36 37 39 40
2 1 1 3 4 4 4 4 3 6 6 7 10 13 13 7 1 5 5 6 12 15 14 16 18 17 18 20 21 20 21 20 18 18 17 17 18 19 19 22 21 19 19 20 22 24 25 25 24 23 22 23 23 24 24 25 26 26 26 27 28 28 28 29 30 30 30 30 30 30 31 31 30 30 29 29 30 31 31 31 33 35 35 36 38 39
5 4 2 4 3 3 1 3 4 7 6 17 17 7 5 6 5 6 7 9 12 13 13 16 18 17 18 19 21 22 22 20 20 21 21 21 21 20 21 22 22 21 21 22 24 25 26 27 26 25 25 25 25 25 25 26 27 27 27 28 28 29 29 29 30 30 30 30 30 30 31 30 29 28 28 28 29 30 31 31 32 34 34 35 36 37
4 5 4 4 3 5 4 6 6 2 8 25 21 7 11 17 14 8 8 9 11 11 12 14 15 15 17 17 18 20 22 23 24 24 24 24 23 22 23 24 24 23 23 24 26 27 27 28 27 26 26 26 26 26 26 27 28 28 28 29 29 29 30 30 30 30 30 30 30 31 31 30 28 28 28 28 28 30 30 31 32 33 33 33 34 36
6 6 6 4 3 5 5 7 4 5 13 26 22 14 19 24 22 18 15 14 14 13 13 12 11 11 13 16 19 22 24 26 26 26 26 26 25 24 24 25 26 27 27 27 27 28 29 29 28 28 27 27 27 27 27 28 28 28 29 29 29 29 30 31 30 30 30 30 31 31 30 29 28 27 27 27 28 29 29 30 32 32 32 32 32 34
4 4 5 2 2 4 5 5 3 6 14 24 23 18 19 20 21 24 24 24 21 17 15 14 12 13 16 18 21 23 25 26 26 26 26 25 25 25 25 26 27 28 29 28 29 30 31 31 30 29 27 27 27 28 28 28 29 29 29 29 30 30 31 31 30 30 30 30 31 31 30 30 28 26 26 26 26 28 28 30 31 32 32 31 31 32
3 5 5 2 2 3 4 4 6 9 14 21 22 22 21 20 21 24 27 28 26 23 20 18 17 20 22 22 23 24 25 26 26 27 26 25 25 26 26 26 27 28 29 30 30 31 33 33 31 29 27 27 28 28 28 29 29 30 30 30 30 31 31 31 30 30 30 30 31 30 30 29 28 27 26 26 26 27 27 28 30 32 31 30 30 31
3 7 6 4 4 4 3 5 8 9 12 17 21 23 24 24 26 27 27 27 25 23 22 21 22 25 26 25 25 26 26 26 27 27 26 25 27 27 26 26 27 29 30 30 30 33 34 33 31 29 27 28 28 29 29 30 30 30 30 30 30 31 31 31 30 30 30 30 30 30 29 28 28 27 27 27 27 27 27 27 29 30 29 28 29 31
4 5 5 4 4 2 2 4 4 2 5 13 21 25 26 27 27 27 27 27 26 24 24 25 26 27 27 26 26 25 26 26 27 27 27 28 28 27 25 25 26 28 29 29 30 33 34 32 29 28 27 28 28 29 30 30 30 30 29 29 30 30 30 30 30 30 30 30 30 29 29 28 27 26 27 27 27 27 27 26 28 30 29 27 26 28
5 4 3 4 4 2 2 8 10 4 4 13 22 27 29 28 26 25 26 28 28 28 29 29 28 27 26 25 24 23 24 25 26 26 26 26 25 23 22 23 24 26 26 27 28 31 31 29 27 27 27 28 29 29 29 28 28 28 28 29 29 29 29 29 29 29 29 29 29 29 28 27 26 26 26 27 28 29 27 24 24 26 29 28 25 23
12 11 7 6 5 6 11 19 20 13 9 17 24 27 27 27 27 28 28 29 30 30 29 27 25 26 26 25 23 22 24 26 26 25 25 24 23 22 22 23 25 26 26 25 25 27 28 27 27 28 28 29 29 29 28 27 26 27 28 28 28 28 28 28 28 29 29 29 28 28 27 27 26 26 26 27 28 29 29 27 23 21 23 26 25 23
Wind_Direction
149 148 180 218 216 206 209 204 210 208 140 147 162 189 210 231 266 264 262 275 146 301 277 265 271 275 280 285 331 352 357 9 22 75 90 85 88 85 84 82 78 78 77 78 80 80 80 78 77 75 73 72 71 71 69 69 68 66 64 64 63 60 54 55 58 53 48 65 117 154 190 124 63 35 318 319 304 297 307 298 286 280 275 273 271 269
140 179 223 227 220 210 208 205 218 247 109 144 198 255 263 236 259 263 259 288 65 146 264 333 337 283 279 302 355 12 29 25 33 77 83 83 87 84 85 83 83 85 86 90 88 87 87 85 84 83 81 80 76 74 72 71 71 70 70 70 67 66 66 66 65 62 61 61 60 53 41 30 301 266 273 280 312 324 331 311 299 295 288 286 285 279
145 215 239 236 219 171 145 147 179 214 199 192 177 229 270 246 275 285 281 319 45 126 267 338 343 282 287 27 33 38 62 54 61 84 85 89 89 84 87 87 89 91 90 91 89 87 87 85 84 82 79 76 74 73 72 71 71 70 69 67 66 66 66 67 66 65 64 62 60 57 54 47 30 6 321 294 293 288 285 286 291 299 297 292 286 277
190 238 245 234 175 157 217 123 124 142 170 182 164 160 252 250 273 280 294 338 17 100 267 248 258 279 298 76 62 62 82 77 77 86 85 87 86 85 90 91 92 92 89 90 88 88 87 85 83 80 77 75 74 72 70 69 68 66 65 64 63 62 61 62 61 59 58 57 59 60 60 59 55 51 30 330 308 293 284 280 278 283 288 289 289 284
225 242 237 147 142 172 209 156 129 143 223 240 203 186 229 236 210 228 281 345 350 12 4 1 326 294 305 30 93 87 84 75 73 79 76 77 84 90 94 94 93 92 91 90 89 88 86 83 80 76 75 72 70 68 65 64 63 62 62 61 61 61 60 60 58 57 55 56 59 61 64 68 71 75 76 64 47 30 358 328 309 300 292 287 285 282
249 251 150 96 115 162 188 203 172 166 197 287 232 205 219 222 213 230 314 8 18 351 334 23 6 291 315 327 201 130 70 58 61 63 64 70 83 92 93 93 94 93 93 92 90 90 86 82 78 75 72 69 67 65 62 61 60 59 59 59 58 58 58 58 57 57 55 56 59 60 62 65 67 69 67 58 50 44 39 30 13 350 329 312 301 293
256 261 176 150 140 146 186 240 222 170 142 299 247 203 209 199 179 186 160 89 118 260 292 43 85 262 317 323 242 140 82 57 54 50 58 73 84 92 94 96 99 98 97 96 94 92 87 82 78 74 70 67 65 64 62 60 59 58 57 55 54 54 55 55 54 53 50 49 50 50 52 54 56 57 55 49 43 40 40 38 34 24 11 358 343 329
227 291 98 150 135 148 195 244 226 161 125 249 239 146 152 156 162 169 141 139 212 251 317 15 108 259 291 287 266 130 105 60 48 45 56 82 94 99 103 105 106 103 101 101 98 93 87 82 78 74 71 68 67 65 63 60 58 57 54 53 52 52 53 53 51 48 45 44 44 44 44 46 49 51 51 49 44 42 39 38 38 35 31 26 19 11
192 200 208 168 149 189 209 233 197 157 147 243 201 111 119 137 145 136 111 109 354 28 312 306 103 279 265 268 326 98 124 68 137 187 125 116 116 114 117 115 111 108 106 104 100 94 89 83 79 76 73 70 68 65 62 59 58 56 54 52 50 51 53 53 49 44 43 44 43 43 41 41 46 47 47 46 42 40 37 34 34 32 30 27 22 20
93 226 224 160 160 211 212 287 192 169 191 204 129 92 69 71 83 76 94 111 48 56 250 245 183 196 270 276 322 87 181 239 194 190 182 149 136 130 129 124 117 113 110 108 103 97 91 85 81 77 74 72 68 64 61 59 58 55 53 48 44 48 51 49 47 41 40 42 40 42 43 44 49 50 48 44 39 38 32 28 27 25 24 22 19 16
325 328 254 158 180 193 140 56 48 137 138 123 103 70 39 34 56 54 65 97 63 268 246 235 198 184 267 283 244 159 174 248 195 168 179 169 154 147 140 131 124 119 116 112 107 100 93 87 84 79 74 70 67 65 61 58 55 51 50 43 37 43 45 43 43 37 35 37 35 39 41 41 45 45 40 35 35 36 31 28 28 23 19 18 17 15
337 343 280 242 187 132 100 61 34 45 84 103 90 73 45 340 19 28 356 52 110 252 261 264 204 169 217 261 234 226 311 280 220 188 178 175 169 160 148 138 131 126 123 118 111 103 97 92 87 80 73 69 68 63 56 53 49 44 44 39 32 36 39 37 35 31 30 31 33 36 35 34 35 31 26 25 28 30 28 29 30 25 21 18 15 11
315 246 269 320 225 163 111 64 24 7 36 84 94 89 80 319 352 353 312 357 230 248 265 276 164 165 234 240 209 276 307 298 282 235 185 172 171 165 153 145 138 133 130 124 116 109 103 98 89 79 72 68 63 54 50 48 42 37 37 32 26 29 35 32 28 26 25 26 30 33 31 30 29 25 23 23 24 24 22 22 20 17 16 14 11 8
296 294 305 83 266 202 161 139 178 266 122 143 146 128 130 148 174 277 269 271 269 264 269 264 158 206 269 260 203 268 296 308 304 221 181 170 165 162 156 150 145 141 138 131 124 118 112 104 93 81 73 64 57 51 47 41 34 31 26 22 20 26 31 28 25 25 23 26 30 29 26 25 23 20 19 19 19 19 16 14 12 10 9 8 7 6
184 300 217 175 218 188 179 181 165 145 148 178 159 136 148 155 171 228 225 212 251 283 297 283 232 196 215 221 216 238 357 29 82 154 165 165 162 161 159 155 152 149 145 140 134 130 123 116 104 90 74 60 54 51 42 35 31 22 16 17 16 20 25 22 22 24 23 27 27 23 21 19 16 14 12 11 12 10 8 7 6 4 3 2 2 1
157 250 246 226 165 160 178 191 135 112 125 217 126 114 165 181 161 191 203 178 185 302 299 242 225 218 184 162 193 117 64 71 114 141 154 162 165 166 165 162 158 155 152 149 146 144 142 139 132 114 82 59 51 47 36 28 24 15 14 19 18 23 30 28 28 28 27 29 23 17 16 13 12 10 7 7 6 4 4 2 0 359 358 357 355 352
143 261 275 340 58 153 165 180 142 131 185 168 130 178 215 175 126 120 260 42 78 262 275 203 235 288 321 193 356 77 66 78 128 150 160 166 170 173 172 167 163 161 158 157 160 163 170 173 175 174 164 156 27 31 14 8 16 27 33 42 50 55 59 57 54 48 41 35 22 15 13 8 6 3 0 1 359 359 358 355 352 351 348 346 343 342
147 253 268 141 161 213 105 123 82 47 132 128 183 212 192 119 97 101 251 349 35 249 275 211 210 249 244 238 318 64 144 180 194 183 175 177 180 182 178 170 167 167 166 168 174 184 194 199 206 208 214 230 218 241 303 359 25 39 44 48 54 56 64 66 61 57 51 42 30 22 18 12 8 4 360 358 354 351 348 343 340 338 335 333 332 332
130 225 276 148 161 250 36 100 78 8 61 131 186 191 115 141 167 95 159 225 245 245 279 288 239 227 210 201 198 202 195 190 199 196 189 195 194 189 182 176 174 174 177 183 188 200 211 215 222 221 222 228 221 235 261 280 53 92 102 98 92 88 86 79 68 62 52 41 31 21 18 14 9 5 360 356 353 347 342 336 333 330 327 325 323 322
110 163 269 306 174 233 33 89 171 254 356 79 112 59 46 163 171 148 151 165 186 223 272 295 298 265 232 197 184 198 191 176 182 189 198 203 195 189 182 179 181 182 187 198 204 213 222 224 228 226 223 227 227 230 223 192 166 148 141 134 124 107 88 77 64 53 38 27 20 13 12 9 4 1 355 350 346 340 335 332 329 327 325 323 321 319
98 168 233 294 335 117 166 202 185 185 174 141 167 205 251 150 130 194 203 126 138 178 225 268 278 269 251 197 184 193 180 172 180 182 190 198 193 189 184 180 186 191 199 215 218 223 230 232 231 227 225 229 227 220 197 171 157 144 133 122 107 85 68 54 30 20 11 5 2 357 354 352 350 347 343 340 337 333 331 328 326 324 322 322 321 320
162 167 176 211 211 180 225 237 185 188 178 162 188 201 189 167 130 189 246 217 132 170 181 206 259 269 259 204 179 179 169 176 184 179 184 196 195 191 187 184 193 208 220 227 227 231 236 238 237 231 231 233 222 208 189 169 158 148 138 128 110 73 35 14 359 355 349 344 342 339 337 335 333 331 328 328 327 326 324 323 322 322 320 320 320 319
128 125 146 196 204 210 255 273 163 193 158 132 193 201 158 151 140 173 227 227 154 209 158 139 256 272 272 281 200 178 177 180 184 182 185 194 196 194 191 191 206 229 238 235 232 237 240 242 242 235 234 234 219 205 194 183 178 174 169 163 136 17 360 355 348 343 340 337 333 331 329 327 324 323 322 322 322 322 321 320 320 320 320 320 319 318
109 114 160 247 322 326 312 327 43 71 99 129 249 174 149 169 157 176 207 171 151 223 157 111 251 259 305 328 24 164 177 182 186 187 189 196 199 197 196 202 225 246 249 242 236 238 239 238 238 233 231 228 214 203 198 192 190 185 174 154 356 351 349 345 341 339 336 334 332 329 327 324 322 322 321 321 322 322 321 320 320 321 322 322 321 319
186 164 146 184 297 326 327 327 323 331 165 191 226 194 168 141 111 105 127 118 201 213 164 182 248 249 302 336 25 135 162 184 196 195 195 202 205 202 199 209 237 253 255 248 240 237 235 235 234 230 225 216 205 201 197 192 187 178 140 350 340 338 336 330 328 329 329 328 327 324 321 319 318 319 319 319 320 320 320 320 320 320 321 322 321 320
194 190 153 178 219 233 226 214 220 229 201 191 202 201 196 162 148 145 131 169 228 198 157 208 247 262 322 328 320 233 170 190 210 206 208 216 212 207 208 230 260 264 260 252 242 236 234 233 229 222 214 204 198 195 189 180 172 164 215 304 306 309 311 314 316 319 320 319 317 315 314 313 313 313 314 314 314 314 314 315 315 316 317 317 317 316
146 218 202 204 226 232 219 217 207 150 152 194 204 198 199 180 165 152 140 192 219 177 198 230 218 215 281 237 225 238 210 206 223 217 218 223 216 213 228 258 268 263 257 250 240 234 232 229 222 212 202 197 192 189 184 182 187 198 227 258 279 292 297 302 305 307 308 308 308 308 308 309 309 309 309 308 308 308 308 308 308 309 310 311 311 310
115 227 218 214 233 239 197 196 193 162 177 191 192 202 205 174 156 166 191 202 173 172 244 239 156 176 246 225 204 219 217 216 225 221 223 226 223 229 249 264 261 251 245 239 232 230 227 222 213 203 197 196 194 193 195 201 213 227 247 262 274 284 289 292 294 296 298 299 301 302 303 303 303 303 303 302 302 302 303 303 303 303 305 307 308 308
146 224 212 194 221 227 133 168 170 166 189 182 187 203 196 176 176 187 205 202 174 197 245 234 159 200 241 229 191 207 217 218 224 230 234 234 238 251 263 261 250 238 231 227 225 225 222 215 207 201 202 204 203 207 213 222 233 245 257 266 274 278 280 282 284 287 291 294 296 297 297 297 297 297 297 297 298 298 298 298 299 300 302 304 305 306
166 216 182 164 198 171 120 229 143 149 194 226 232 228 200 185 191 196 210 212 198 223 255 246 211 229 243 229 197 216 227 231 239 246 247 246 252 261 257 247 240 231 224 223 223 220 216 210 206 205 209 212 215 221 229 235 244 255 261 266 270 271 273 277 281 288 293 296 296 296 295 295 295 295 294 294 294 295 295 296 297 299 301 302 303 304
192 212 116 131 190 210 222 327 92 140 188 224 252 251 219 179 199 213 222 214 201 245 252 251 255 259 257 241 218 229 233 230 240 248 252 257 257 247 238 235 234 227 221 219 217 212 208 206 206 211 216 220 223 226 233 243 251 257 260 263 265 267 271 278 285 293 298 299 298 298 297 297 296 295 294 294 293 293 294 296 297 299 300 302 303 303
188 210 62 102 205 235 201 142 125 111 115 251 258 250 208 185 214 217 206 197 204 226 239 248 254 257 261 234 189 225 230 222 232 243 251 258 251 234 230 230 225 221 217 212 208 205 207 210 213 218 219 219 221 224 234 245 250 254 257 259 261 265 272 280 288 296 300 301 301 300 299 298 297 296 295 294 294 295 296 297 299 300 301 302 303 303
164 168 132 164 207 216 97 146 131 84 49 259 255 228 190 205 226 219 209 220 213 206 213 228 236 246 264 62 185 242 236 229 242 250 252 254 246 233 233 229 222 219 215 210 209 211 217 220 220 220 218 219 226 236 245 250 253 256 257 258 261 266 274 283 291 298 300 301 302 301 301 299 297 297 296 295 296 296 298 300 301 302 303 304 305 306
167 168 165 183 186 174 171 103 101 132 234 245 257 164 180 202 211 213 229 231 213 195 204 229 249 265 273 241 242 250 249 252 263 266 264 257 245 236 233 226 221 219 215 214 219 224 227 225 219 218 221 229 241 250 255 257 259 260 259 260 264 268 276 285 292 297 299 301 302 302 301 300 298 297 296 296 297 298 300 302 303 304 305 307 308 309
151 143 145 132 117 137 130 99 167 217 229 243 345 162 187 184 184 207 241 246 220 212 221 237 254 255 241 239 243 252 264 271 274 277 273 256 239 234 231 225 220 220 220 222 226 229 227 223 221 223 229 239 249 255 259 260 260 260 259 260 263 268 277 287 294 298 300 302 304 304 302 301 299 297 296 297 299 301 303 304 306 307 309 309 310 311
149 143 122 120 129 124 127 186 214 244 309 280 256 169 119 115 133 178 276 267 233 214 211 222 237 240 240 244 248 256 267 272 273 269 254 230 226 230 230 230 227 228 231 233 233 233 231 229 230 232 236 244 251 256 259 258 257 257 257 259 263 270 281 291 296 299 301 303 305 304 303 301 299 297 298 300 302 304 306 307 309 310 310 311 311 312
150 150 117 172 183 153 171 221 253 348 315 277 259 179 157 173 162 162 233 259 240 204 189 199 228 239 238 242 247 247 242 255 276 249 219 212 229 236 236 238 238 238 241 240 238 237 236 235 235 235 240 248 253 256 257 256 256 256 257 260 266 275 286 294 298 301 303 304 304 304 302 300 299 299 301 304 305 307 308 309 310 311 311 311 312 313
142 167 184 209 214 122 141 243 288 303 264 264 249 193 199 189 167 153 187 276 274 201 188 190 214 229 229 232 227 204 182 180 286 249 225 224 239 243 243 243 240 239 241 240 238 236 232 231 233 238 245 251 255 257 258 258 258 258 260 263 271 281 290 297 300 301 303 304 305 303 301 300 300 302 304 306 307 308 309 310 311 312 312 313 313 314
38 18 152 180 212 121 156 224 231 232 254 258 231 229 196 171 158 112 71 291 273 195 189 190 202 217 217 208 191 167 149 173 252 252 241 241 251 255 254 248 238 235 236 236 236 236 234 234 237 242 248 252 256 260 261 262 262 262 263 267 275 286 294 298 301 302 304 305 305 303 301 301 303 305 306 307 308 309 310 311 312 312 313 315 315 316
51 22 101 183 208 205 204 225 234 244 259 243 214 200 134 149 138 96 40 271 246 186 186 187 191 206 212 200 178 157 166 204 232 257 259 260 266 263 259 251 243 240 242 240 241 241 240 242 244 248 252 256 261 264 264 265 265 265 267 273 281 290 296 299 301 303 305 306 305 303 302 303 305 306 307 308 309 310 311 312 313 314 315 316 316 316
44 303 214 218 227 222 216 231 272 266 246 218 172 153 136 113 101 123 227 234 187 178 184 187 196 208 207 193 178 185 218 228 241 260 263 262 264 258 250 246 243 244 246 246 248 248 248 249 250 252 256 260 264 267 267 268 269 269 270 277 285 292 296 299 302 304 305 305 303 302 303 304 305 306 307 308 310 310 312 313 314 315 316 317 316 316
167 154 232 224 223 220 219 226 269 277 241 181 154 153 147 125 142 213 202 158 161 174 185 194 206 214 210 204 203 215 233 242 250 257 260 263 265 259 247 241 240 242 244 245 248 250 249 250 250 251 256 260 265 268 269 270 270 271 274 281 287 292 296 299 302 304 304 303 302 302 304 305 305 306 307 309 310 310 312 315 315 316 317 317 316 316
165 156 206 222 187 152 182 199 226 276 210 152 139 132 163 183 213 196 164 158 171 185 199 207 215 221 220 221 225 231 241 250 253 257 260 263 264 260 247 239 241 247 250 252 256 255 252 250 250 251 255 260 263 265 267 269 271 272 277 282 287 292 295 298 301 302 302 301 301 302 304 304 305 306 308 310 310 311 314 315 315 315 316 316 316 316
181 164 182 225 188 150 178 204 202 261 164 156 152 166 207 211 223 212 184 193 202 210 220 222 225 230 229 233 241 245 251 256 257 260 260 260 263 263 252 244 246 252 256 259 261 259 254 251 250 250 253 257 260 263 266 268 271 273 277 282 287 291 294 297 299 300 300 299 301 303 304 304 305 307 308 310 310 312 314 315 314 315 316 316 317 316
224 192 175 200 201 168 198 220 186 118 155 170 179 201 209 216 230 232 230 238 238 237 239 230 226 239 248 254 257 257 258 261 263 264 263 263 266 268 263 259 258 260 262 262 260 256 251 250 249 250 253 257 260 263 266 267 270 273 277 282 286 290 293 296 298 299 298 299 302 303 304 304 305 307 308 310 311 312 313 314 314 314 316 318 317 315
236 187 156 157 241 235 240 232 173 138 170 184 198 220 223 226 234 235 239 245 244 244 242 232 241 272 283 277 268 263 265 266 266 267 267 268 271 272 272 272 268 264 263 261 258 253 248 245 246 248 253 259 262 264 267 269 271 274 278 282 287 290 293 296 297 297 297 300 302 303 303 304 305 306 308 309 310 311 313 314 314 314 317 318 315 313
253 181 173 178 216 227 245 220 188 186 188 190 203 221 227 231 236 237 241 244 244 244 242 241 262 284 288 283 275 271 273 273 270 269 269 269 272 274 275 275 272 270 268 264 260 253 246 243 244 248 253 260 263 266 268 270 273 276 280 284 288 290 293 295 295 295 297 300 302 302 302 303 304 306 308 308 309 311 312 314 314 314 316 317 314 314
212 173 185 216 204 191 236 238 208 200 202 202 209 219 225 231 237 237 240 244 245 244 242 247 264 278 282 282 279 275 277 277 274 272 270 271 275 278 278 276 275 273 271 267 260 252 245 242 244 249 254 259 262 265 268 270 274 277 280 284 287 289 292 293 293 294 298 301 302 301 302 303 304 306 308 308 309 310 312 314 314 313 315 316 315 315
160 170 182 196 199 202 276 251 202 188 238 223 217 222 230 237 241 241 242 242 240 240 244 253 266 276 280 280 279 278 277 278 278 275 273 275 280 282 282 280 277 274 273 270 262 251 245 243 245 251 256 260 263 265 267 270 273 276 280 283 286 288 291 290 291 295 299 301 301 301 301 302 304 306 307 307 308 309 311 314 314 313 314 316 317 319
163 203 176 165 200 215 217 209 196 185 249 233 227 233 239 240 241 242 243 243 243 247 255 264 272 277 275 272 274 275 276 278 280 280 278 280 282 282 281 279 275 273 273 270 260 249 244 245 251 256 261 265 266 267 268 270 273 277 280 283 285 287 288 289 291 296 300 300 300 300 300 302 303 305 306 306 307 307 309 311 312 313 313 315 318 321
203 219 198 177 211 227 226 225 218 208 229 245 246 249 248 242 239 239 243 249 254 258 263 268 271 272 270 268 269 271 273 276 278 279 281 283 282 280 280 278 276 274 271 265 257 250 248 251 257 262 267 269 269 269 270 273 276 279 281 284 286 286 286 288 293 297 299 299 298 298 300 301 303 304 305 305 306 308 309 309 309 310 311 314 318 323